Location: Newark
(48.0000°N, 67.0000°E)
Time: 21:52:15
(UTC+00:00)

Tiros 1 - All Passes

Search period start: 28 February 2020 00:00
Search period end: 09 March 2020 00:00
Orbit: 630 x 664 km, 48.4° (Epoch: 27 February)

Date Brightness Start Highest point End Pass type
(mag) Time Alt. Az. Time Alt. Az. Time Alt. Az.
28 Feb - 00:22:50 10° W 00:27:22 54° SSW 00:31:52 10° SE visible
28 Feb - 02:05:56 10° W 02:08:51 17° SW 02:11:47 10° S daylight
28 Feb - 18:03:02 10° S 18:05:34 15° SE 18:08:07 10° ESE night (unlit)
28 Feb - 19:42:29 10° SW 19:47:00 49° SSE 19:51:29 10° E night (unlit)
28 Feb - 21:24:24 10° W 21:29:04 87° N 21:33:44 10° E visible
28 Feb - 23:06:41 10° W 23:11:21 81° SSW 23:15:57 10° ESE visible
29 Feb - 00:49:04 10° W 00:53:12 32° SSW 00:57:19 10° SSE visible
29 Feb - 18:27:13 10° SSW 18:31:10 27° SE 18:35:07 10° E night (unlit)
29 Feb - 20:08:17 10° WSW 20:12:57 74° SSE 20:17:35 10° E night (unlit)
29 Feb - 21:50:31 10° W 21:55:11 85° N 21:59:51 10° E visible
29 Feb - 23:32:46 10° W 23:37:20 57° SSW 23:41:51 10° SE visible
01 Mar - 01:15:45 10° W 01:18:52 18° SW 01:21:57 10° S visible
01 Mar - 17:13:16 10° SSE 17:15:34 14° SE 17:17:51 10° ESE night (unlit)
01 Mar - 18:52:28 10° SW 18:56:58 47° SSE 19:01:26 10° E night (unlit)
01 Mar - 20:34:19 10° W 20:39:01 88° N 20:43:41 10° E night (unlit)
01 Mar - 22:16:37 10° W 22:21:17 83° SSW 22:25:55 10° ESE visible
01 Mar - 23:58:59 10° W 00:03:11 34° SSW 00:07:21 10° SSE visible
02 Mar - 17:37:16 10° SSW 17:41:09 26° SE 17:45:01 10° E night (unlit)
02 Mar - 19:18:13 10° WSW 19:22:54 71° SSE 19:27:33 10° E night (unlit)
02 Mar - 21:00:26 10° W 21:05:07 85° N 21:09:47 10° E night (unlit)
02 Mar - 22:42:42 10° W 22:47:17 60° SSW 22:51:50 10° ESE visible
03 Mar - 00:25:35 10° W 00:28:51 19° SW 00:32:06 10° S visible
03 Mar - 16:23:34 10° SSE 16:25:34 13° SE 16:27:33 10° ESE night (unlit)
03 Mar - 18:02:27 10° SW 18:06:55 44° SSE 18:11:22 10° E night (unlit)
03 Mar - 19:44:15 10° W 19:48:58 90° NNE 19:53:38 10° E night (unlit)
03 Mar - 21:26:32 10° W 21:31:14 85° SSW 21:35:52 10° ESE night (unlit)
03 Mar - 23:08:53 10° W 23:13:09 36° SSW 23:17:23 10° SE visible
04 Mar - 16:47:19 10° SSW 16:51:08 24° SE 16:54:54 10° E night (unlit)
04 Mar - 18:28:10 10° WSW 18:32:50 69° SSE 18:37:30 10° E night (unlit)
04 Mar - 20:10:21 10° W 20:15:04 84° N 20:19:44 10° E night (unlit)
04 Mar - 21:52:38 10° W 21:57:15 62° SSW 22:01:49 10° ESE night (unlit)
04 Mar - 23:35:25 10° W 23:38:51 20° SW 23:42:15 10° S visible
05 Mar - 15:33:57 10° SSE 15:35:34 12° SE 15:37:11 10° ESE visible
05 Mar - 17:12:26 10° SW 17:16:53 42° SSE 17:21:18 10° E night (unlit)
05 Mar - 18:54:10 10° W 18:58:53 89° S 19:03:34 10° E night (unlit)
05 Mar - 20:36:28 10° W 20:41:10 87° S 20:45:49 10° ESE night (unlit)
05 Mar - 22:18:48 10° W 22:23:07 39° SSW 22:27:25 10° SE night (unlit)
06 Mar - 15:57:24 10° SSW 16:01:07 23° SE 16:04:48 10° E visible
06 Mar - 17:38:06 10° WSW 17:42:47 66° SSE 17:47:27 10° E night (unlit)
06 Mar - 19:20:17 10° W 19:25:00 84° N 19:29:41 10° E night (unlit)
06 Mar - 21:02:33 10° W 21:07:12 65° SSW 21:11:47 10° ESE night (unlit)
06 Mar - 22:45:16 10° W 22:48:50 22° SW 22:52:22 10° SSE night (unlit)
07 Mar - 14:44:28 10° SSE 14:45:33 11° SE 14:46:38 10° ESE visible
07 Mar - 16:22:25 10° SW 16:26:50 40° SSE 16:31:14 10° E visible
07 Mar - 18:04:05 10° WSW 18:08:50 87° SSE 18:13:31 10° E night (unlit)
07 Mar - 19:46:23 10° W 19:51:07 88° S 19:55:46 10° E night (unlit)
07 Mar - 21:28:42 10° W 21:33:05 41° SSW 21:37:26 10° SE night (unlit)
07 Mar - 23:13:11 10° WSW 23:14:21 11° SW 23:15:31 10° SSW night (unlit)
08 Mar - 15:07:29 10° S 15:11:05 22° SE 15:14:40 10° E visible
08 Mar - 16:48:03 10° WSW 16:52:44 64° SSE 16:57:23 10° E visible
08 Mar - 18:30:12 10° W 18:34:56 84° N 18:39:37 10° E night (unlit)
08 Mar - 20:12:29 10° W 20:17:09 68° SSW 20:21:45 10° ESE night (unlit)
08 Mar - 21:55:07 10° W 21:58:49 23° SW 22:02:29 10° SSE night (unlit)
